Time,TemperatureF,DewpointF,PressureIn,WindDirection,WindDirectionDegrees,WindSpeedMPH,WindSpeedGustMPH,Humidity,HourlyPrecipIn,Conditions,Clouds,dailyrainin,SolarRadiationWatts/m^2,SoftwareType,DateUTC
2013-02-01 00:09:00,74.8,71.0,29.62,NNE,17,3.0,3.0,88,0.00,,,0.00,0,Wunderground v.1.15,2013-01-31 13:09:00,
2013-02-01 00:14:00,74.7,70.9,29.62,NE,35,3.0,3.0,88,0.00,,,0.00,0,Wunderground v.1.15,2013-01-31 13:14:00,
2013-02-01 00:24:00,74.7,70.9,29.61,North,9,3.0,3.0,88,0.00,,,0.00,0,Wunderground v.1.15,2013-01-31 13:24:00,
2013-02-01 00:29:00,74.6,70.8,29.61,NE,44,4.0,4.0,88,0.00,,,0.00,0,Wunderground v.1.15,2013-01-31 13:29:00,
2013-02-01 00:34:00,74.6,70.8,29.61,NNE,28,3.0,3.0,88,0.00,,,0.00,0,Wunderground v.1.15,2013-01-31 13:34:00,
2013-02-01 00:39:00,74.5,70.7,29.61,NNE,13,3.0,3.0,88,0.00,,,0.00,0,Wunderground v.1.15,2013-01-31 13:39:00,
2013-02-01 00:49:00,74.4,70.6,29.61,NE,40,3.0,3.0,88,0.00,,,0.00,0,Wunderground v.1.15,2013-01-31 13:49:00,
2013-02-01 00:54:00,74.3,70.5,29.60,North,351,3.0,3.0,88,0.00,,,0.00,0,Wunderground v.1.15,2013-01-31 13:54:00,
2013-02-01 00:59:00,74.3,70.5,29.60,ENE,57,3.0,3.0,88,0.00,,,0.00,0,Wunderground v.1.15,2013-01-31 13:59:00,
2013-02-01 01:09:00,74.3,70.5,29.60,ENE,72,4.0,5.0,88,0.00,,,0.00,0,Wunderground v.1.15,2013-01-31 14:09:00,
2013-02-01 01:19:00,74.3,70.5,29.60,NE,49,4.0,5.0,88,0.00,,,0.00,0,Wunderground v.1.15,2013-01-31 14:19:00,
2013-02-01 01:24:00,74.3,70.5,29.60,NE,38,3.0,4.0,88,0.00,,,0.00,0,Wunderground v.1.15,2013-01-31 14:24:00,
2013-02-01 01:29:00,74.2,70.4,29.59,ENE,70,3.0,4.0,88,0.00,,,0.00,0,Wunderground v.1.15,2013-01-31 14:29:00,
2013-02-01 01:39:00,74.0,70.2,29.59,NE,52,2.0,3.0,88,0.00,,,0.00,0,Wunderground v.1.15,2013-01-31 14:39:00,
2013-02-01 01:44:00,73.9,70.1,29.59,NE,42,2.0,2.0,88,0.00,,,0.00,0,Wunderground v.1.15,2013-01-31 14:44:00,
2013-02-01 01:49:00,73.9,70.1,29.59,ENE,70,3.0,3.0,88,0.00,,,0.00,0,Wunderground v.1.15,2013-01-31 14:49:00,
2013-02-01 09:09:00,80.1,70.3,29.60,WNW,300,3.0,4.0,72,0.00,,,0.00,476,Wunderground v.1.15,2013-01-31 22:09:00,
2013-02-01 09:14:00,80.6,70.3,29.60,NNW,338,3.0,4.0,71,0.00,,,0.00,510,Wunderground v.1.15,2013-01-31 22:14:00,
2013-02-01 09:19:00,81.4,69.8,29.60,NW,321,3.0,6.0,68,0.00,,,0.00,413,Wunderground v.1.15,2013-01-31 22:19:00,
2013-02-01 09:29:00,82.7,69.7,29.60,NW,314,4.0,4.0,65,0.00,,,0.00,673,Wunderground v.1.15,2013-01-31 22:29:00,
2013-02-01 09:39:00,84.4,70.9,29.60,NW,311,3.0,3.0,64,0.00,,,0.00,694,Wunderground v.1.15,2013-01-31 22:39:00,
2013-02-01 09:44:00,85.6,71.1,29.60,NW,314,4.0,4.0,62,0.00,,,0.00,735,Wunderground v.1.15,2013-01-31 22:44:00,
2013-02-01 09:49:00,85.6,69.6,29.60,WNW,284,4.0,4.0,59,0.00,,,0.00,816,Wunderground v.1.15,2013-01-31 22:49:00,
2013-02-01 09:54:00,86.0,70.5,29.60,WNW,297,4.0,4.0,60,0.00,,,0.00,817,Wunderground v.1.15,2013-01-31 22:54:00,
2013-02-01 10:04:00,86.5,67.9,29.60,NW,308,5.0,5.0,54,0.00,,,0.00,624,Wunderground v.1.15,2013-01-31 23:04:00,
2013-02-01 10:09:00,86.7,69.6,29.60,NW,319,5.0,5.0,57,0.00,,,0.00,543,Wunderground v.1.15,2013-01-31 23:09:00,
2013-02-01 10:14:00,87.2,69.1,29.60,NW,324,4.0,4.0,55,0.00,,,0.00,904,Wunderground v.1.15,2013-01-31 23:14:00,
2013-02-01 10:19:00,89.2,69.3,29.60,NW,309,3.0,4.0,52,0.00,,,0.00,775,Wunderground v.1.15,2013-01-31 23:19:00,
2013-02-01 10:29:00,88.7,69.4,29.60,NW,308,3.0,5.0,53,0.00,,,0.00,457,Wunderground v.1.15,2013-01-31 23:29:00,
2013-02-01 10:39:00,87.3,68.6,29.60,NNW,333,3.0,4.0,54,0.00,,,0.00,323,Wunderground v.1.15,2013-01-31 23:39:00,
2013-02-01 10:44:00,87.3,68.1,29.60,West,279,3.0,3.0,53,0.00,,,0.00,227,Wunderground v.1.15,2013-01-31 23:44:00,
2013-02-01 10:49:00,86.0,68.5,29.61,West,268,3.0,3.0,56,0.00,,,0.00,158,Wunderground v.1.15,2013-01-31 23:49:00,
2013-02-01 10:54:00,85.0,69.1,29.62,SW,229,3.0,4.0,59,0.00,,,0.00,132,Wunderground v.1.15,2013-01-31 23:54:00,
2013-02-01 10:59:00,80.1,69.0,29.63,West,259,4.0,4.0,69,0.00,,,0.00,156,Wunderground v.1.15,2013-01-31 23:59:00,
2013-02-01 11:04:00,86.4,75.0,29.62,West,270,3.0,-999.0,69,0.00,,,0.97,250,Wunderground v.1.15,2013-02-01 00:04:00,
2013-02-01 11:09:00,74.6,68.7,29.64,South,173,4.0,5.0,82,0.00,,,0.00,174,Wunderground v.1.15,2013-02-01 00:09:00,
2013-02-01 11:14:00,73.6,68.1,29.64,SW,221,5.0,5.0,83,0.00,,,0.00,109,Wunderground v.1.15,2013-02-01 00:14:00,
2013-02-01 11:19:00,72.8,67.7,29.64,ESE,122,5.0,7.0,84,0.00,,,0.00,67,Wunderground v.1.15,2013-02-01 00:19:00,
2013-02-01 11:24:00,72.4,67.6,29.64,East,101,5.0,5.0,85,0.00,,,0.00,58,Wunderground v.1.15,2013-02-01 00:24:00,
2013-02-01 11:29:00,72.1,67.7,29.65,ESE,110,4.0,5.0,86,0.00,,,0.00,40,Wunderground v.1.15,2013-02-01 00:29:00,
2013-02-01 11:34:00,74.3,69.8,29.64,SW,225,5.0,-999.0,86,0.00,,,0.97,130,Wunderground v.1.15,2013-02-01 00:34:00,
2013-02-01 11:39:00,71.2,67.1,29.65,SSW,206,5.0,7.0,87,0.00,,,0.00,33,Wunderground v.1.15,2013-02-01 00:39:00,
2013-02-01 11:44:00,74.3,69.8,29.64,SW,225,5.0,-999.0,86,0.00,,,0.97,130,Wunderground v.1.15,2013-02-01 00:44:00,
2013-02-01 11:49:00,70.7,67.0,29.65,SW,233,5.0,6.0,88,0.00,,,0.00,58,Wunderground v.1.15,2013-02-01 00:49:00,
2013-02-01 11:54:00,70.6,67.2,29.65,SSW,205,5.0,5.0,89,0.00,,,0.00,65,Wunderground v.1.15,2013-02-01 00:54:00,
2013-02-01 11:59:00,70.4,67.0,29.65,SSE,165,5.0,5.0,89,0.00,,,0.00,65,Wunderground v.1.15,2013-02-01 00:59:00,
2013-02-01 12:04:00,70.2,66.8,29.65,WSW,240,5.0,5.0,89,0.00,,,0.00,69,Wunderground v.1.15,2013-02-01 01:04:00,
2013-02-01 12:09:00,70.1,66.7,29.65,South,183,4.0,5.0,89,0.00,,,0.00,91,Wunderground v.1.15,2013-02-01 01:09:00,
2013-02-01 12:14:00,71.0,67.6,29.65,SW,225,5.0,-999.0,89,0.00,,,0.97,48,Wunderground v.1.15,2013-02-01 01:14:00,
2013-02-01 12:19:00,69.7,66.3,29.63,SE,139,5.0,8.0,89,0.00,,,0.00,77,Wunderground v.1.15,2013-02-01 01:19:00,
2013-02-01 12:24:00,69.5,66.1,29.63,WSW,253,6.0,6.0,89,0.00,,,0.00,149,Wunderground v.1.15,2013-02-01 01:24:00,
2013-02-01 12:29:00,69.4,66.3,29.63,West,263,6.0,7.0,90,0.00,,,0.00,199,Wunderground v.1.15,2013-02-01 01:29:00,
2013-02-01 12:34:00,69.9,66.8,29.63,SW,225,5.0,-999.0,90,0.00,,,0.97,99,Wunderground v.1.15,2013-02-01 01:34:00,
2013-02-01 12:39:00,69.9,66.8,29.63,SSE,165,5.0,6.0,90,0.00,,,0.00,225,Wunderground v.1.15,2013-02-01 01:39:00,
2013-02-01 12:44:00,70.0,66.6,29.63,SSW,205,4.0,7.0,89,0.00,,,0.00,262,Wunderground v.1.15,2013-02-01 01:44:00,
2013-02-01 12:49:00,70.0,66.3,29.62,SW,225,5.0,-999.0,88,0.00,,,0.97,219,Wunderground v.1.15,2013-02-01 01:49:00,
2013-02-01 12:54:00,70.3,66.9,29.62,South,169,5.0,6.0,89,0.00,,,0.00,146,Wunderground v.1.15,2013-02-01 01:54:00,
2013-02-01 12:59:00,70.3,66.6,29.62,SSW,213,5.0,6.0,88,0.00,,,0.00,225,Wunderground v.1.15,2013-02-01 01:59:00,
2013-02-01 13:04:00,70.6,66.5,29.61,SSE,161,4.0,5.0,87,0.00,,,0.00,192,Wunderground v.1.15,2013-02-01 02:04:00,
2013-02-01 13:09:00,70.0,66.3,29.62,SW,225,5.0,-999.0,88,0.00,,,0.97,219,Wunderground v.1.15,2013-02-01 02:09:00,
2013-02-01 13:14:00,70.5,66.8,29.60,WSW,248,5.0,5.0,88,0.00,,,0.00,227,Wunderground v.1.15,2013-02-01 02:14:00,
2013-02-01 13:19:00,70.6,66.5,29.60,West,279,4.0,5.0,87,0.00,,,0.00,195,Wunderground v.1.15,2013-02-01 02:19:00,
2013-02-01 13:24:00,70.8,66.4,29.60,SW,223,4.0,4.0,86,0.00,,,0.00,171,Wunderground v.1.15,2013-02-01 02:24:00,
2013-02-01 13:29:00,70.7,66.3,29.61,South,178,4.0,4.0,86,0.00,,,0.00,123,Wunderground v.1.15,2013-02-01 02:29:00,
2013-02-01 13:34:00,70.6,66.2,29.61,SW,225,4.0,-999.0,86,0.00,,,0.97,186,Wunderground v.1.15,2013-02-01 02:34:00,
2013-02-01 13:39:00,70.5,66.1,29.59,SW,219,4.0,4.0,86,0.00,,,0.00,167,Wunderground v.1.15,2013-02-01 02:39:00,
2013-02-01 13:44:00,70.6,66.2,29.61,SW,225,4.0,-999.0,86,0.00,,,0.97,186,Wunderground v.1.15,2013-02-01 02:44:00,
2013-02-01 13:49:00,70.4,66.0,29.59,SE,130,3.0,5.0,86,0.00,,,0.00,132,Wunderground v.1.15,2013-02-01 02:49:00,
2013-02-01 13:54:00,70.3,66.2,29.59,SW,233,3.0,3.0,87,0.00,,,0.00,104,Wunderground v.1.15,2013-02-01 02:54:00,
2013-02-01 13:59:00,70.1,66.0,29.58,WNW,293,3.0,3.0,87,0.00,,,0.00,90,Wunderground v.1.15,2013-02-01 02:59:00,
2013-02-01 14:04:00,70.1,66.0,29.59,SSW,211,3.0,3.0,87,0.00,,,0.00,83,Wunderground v.1.15,2013-02-01 03:04:00,
2013-02-01 14:09:00,70.5,66.4,29.59,SW,225,3.0,-999.0,87,0.00,,,0.97,140,Wunderground v.1.15,2013-02-01 03:09:00,
2013-02-01 14:14:00,69.5,66.4,29.59,SSE,150,3.0,3.0,90,0.00,,,0.01,95,Wunderground v.1.15,2013-02-01 03:14:00,
2013-02-01 14:19:00,69.5,66.8,29.60,SW,236,3.0,3.0,91,0.00,,,0.01,179,Wunderground v.1.15,2013-02-01 03:19:00,
2013-02-01 14:24:00,69.7,67.0,29.60,SE,128,2.0,3.0,91,0.00,,,0.01,107,Wunderground v.1.15,2013-02-01 03:24:00,
2013-02-01 14:29:00,69.6,66.9,29.62,WNW,290,2.0,3.0,91,0.00,,,0.01,62,Wunderground v.1.15,2013-02-01 03:29:00,
2013-02-01 14:34:00,69.7,67.0,29.62,SW,225,3.0,-999.0,91,0.01,,,0.97,102,Wunderground v.1.15,2013-02-01 03:34:00,
2013-02-01 14:39:00,69.4,66.7,29.63,West,262,1.0,3.0,91,0.00,,,0.01,72,Wunderground v.1.15,2013-02-01 03:39:00,
2013-02-01 14:44:00,69.4,66.7,29.63,East,80,1.0,1.0,91,0.00,,,0.01,26,Wunderground v.1.15,2013-02-01 03:44:00,
2013-02-01 14:49:00,69.4,66.7,29.62,NNW,331,1.0,1.0,91,0.00,,,0.01,30,Wunderground v.1.15,2013-02-01 03:49:00,
2013-02-01 14:54:00,69.3,66.9,29.62,West,265,1.0,4.0,92,0.00,,,0.01,33,Wunderground v.1.15,2013-02-01 03:54:00,
2013-02-01 14:59:00,69.3,66.9,29.61,WSW,258,1.0,4.0,92,0.00,,,0.01,62,Wunderground v.1.15,2013-02-01 03:59:00,
2013-02-01 15:04:00,69.4,67.0,29.61,West,270,1.0,-999.0,92,0.01,,,0.97,46,Wunderground v.1.15,2013-02-01 04:04:00,
2013-02-01 15:09:00,69.0,66.6,29.59,WSW,242,2.0,5.0,92,0.00,,,0.01,111,Wunderground v.1.15,2013-02-01 04:09:00,
2013-02-01 15:14:00,68.9,66.5,29.58,SSW,209,3.0,6.0,92,0.00,,,0.01,123,Wunderground v.1.15,2013-02-01 04:14:00,
2013-02-01 15:19:00,68.9,66.5,29.59,WNW,293,3.0,6.0,92,0.00,,,0.01,63,Wunderground v.1.15,2013-02-01 04:19:00,
2013-02-01 15:24:00,68.9,66.5,29.59,WSW,238,3.0,5.0,92,0.00,,,0.01,79,Wunderground v.1.15,2013-02-01 04:24:00,
2013-02-01 15:29:00,69.0,66.3,29.60,WSW,248,3.0,-999.0,91,0.00,,,0.97,82,Wunderground v.1.15,2013-02-01 04:29:00,
2013-02-01 15:34:00,68.9,66.2,29.59,West,259,4.0,4.0,91,0.00,,,0.01,81,Wunderground v.1.15,2013-02-01 04:34:00,
2013-02-01 15:39:00,69.0,66.3,29.60,WSW,248,3.0,-999.0,91,0.00,,,0.97,82,Wunderground v.1.15,2013-02-01 04:39:00,
2013-02-01 15:44:00,69.0,66.3,29.58,SSW,192,3.0,3.0,91,0.00,,,0.01,90,Wunderground v.1.15,2013-02-01 04:44:00,
2013-02-01 15:49:00,69.0,65.9,29.59,South,176,4.0,4.0,90,0.00,,,0.01,67,Wunderground v.1.15,2013-02-01 04:49:00,
2013-02-01 15:54:00,69.2,66.1,29.58,SW,236,4.0,5.0,90,0.00,,,0.01,54,Wunderground v.1.15,2013-02-01 04:54:00,
2013-02-01 15:59:00,69.0,65.6,29.59,SW,225,4.0,-999.0,89,0.00,,,0.97,74,Wunderground v.1.15,2013-02-01 04:59:00,
2013-02-01 16:04:00,69.0,65.6,29.58,West,281,4.0,7.0,89,0.00,,,0.01,91,Wunderground v.1.15,2013-02-01 05:04:00,
2013-02-01 16:09:00,69.1,65.7,29.59,SW,230,4.0,7.0,89,0.00,,,0.01,90,Wunderground v.1.15,2013-02-01 05:09:00,
2013-02-01 16:14:00,69.1,65.7,29.59,WSW,248,4.0,5.0,89,0.00,,,0.01,42,Wunderground v.1.15,2013-02-01 05:14:00,
2013-02-01 16:19:00,69.1,65.7,29.59,West,267,5.0,5.0,89,0.00,,,0.01,42,Wunderground v.1.15,2013-02-01 05:19:00,
2013-02-01 16:24:00,69.1,65.7,29.60,South,180,5.0,5.0,89,0.00,,,0.01,33,Wunderground v.1.15,2013-02-01 05:24:00,
2013-02-01 16:29:00,69.1,65.7,29.59,SSE,147,4.0,8.0,89,0.00,,,0.01,28,Wunderground v.1.15,2013-02-01 05:29:00,
2013-02-01 16:34:00,69.1,65.7,29.59,WSW,248,4.0,-999.0,89,0.00,,,0.97,54,Wunderground v.1.15,2013-02-01 05:34:00,
2013-02-01 16:39:00,68.9,65.2,29.61,WSW,237,7.0,9.0,88,0.00,,,0.01,5,Wunderground v.1.15,2013-02-01 05:39:00,
2013-02-01 16:44:00,68.8,65.1,29.64,WSW,252,9.0,9.0,88,0.00,,,0.01,0,Wunderground v.1.15,2013-02-01 05:44:00,
2013-02-01 16:49:00,67.8,64.8,29.68,SW,221,10.0,10.0,90,7.58,,,0.17,5,Wunderground v.1.15,2013-02-01 05:49:00,
2013-02-01 16:54:00,67.9,65.8,29.65,SW,225,8.0,-999.0,93,0.68,,,0.97,9,Wunderground v.1.15,2013-02-01 05:54:00,
2013-02-01 16:59:00,65.0,62.9,29.65,West,265,8.0,10.0,93,0.36,,,0.69,12,Wunderground v.1.15,2013-02-01 05:59:00,
2013-02-01 17:04:00,65.0,63.2,29.65,West,277,5.0,5.0,94,0.84,,,0.73,16,Wunderground v.1.15,2013-02-01 06:04:00,
2013-02-01 17:09:00,67.9,65.8,29.65,SW,225,8.0,-999.0,93,0.68,,,0.97,9,Wunderground v.1.15,2013-02-01 06:09:00,
2013-02-01 17:14:00,64.7,62.9,29.64,SSW,213,5.0,5.0,94,0.14,,,0.75,19,Wunderground v.1.15,2013-02-01 06:14:00,
2013-02-01 17:19:00,64.7,63.2,29.64,SW,224,5.0,6.0,95,0.13,,,0.76,16,Wunderground v.1.15,2013-02-01 06:19:00,
2013-02-01 17:24:00,64.4,62.9,29.64,SSW,211,5.0,7.0,95,0.13,,,0.76,19,Wunderground v.1.15,2013-02-01 06:24:00,
2013-02-01 17:29:00,64.1,62.6,29.65,SSW,202,6.0,7.0,95,0.09,,,0.76,14,Wunderground v.1.15,2013-02-01 06:29:00,
2013-02-01 17:34:00,64.7,63.2,29.65,SW,225,5.0,-999.0,95,0.76,,,0.97,17,Wunderground v.1.15,2013-02-01 06:34:00,
2013-02-01 17:39:00,63.9,62.4,29.65,SSW,201,6.0,9.0,95,0.14,,,0.78,14,Wunderground v.1.15,2013-02-01 06:39:00,
2013-02-01 17:44:00,64.7,63.2,29.65,SW,225,5.0,-999.0,95,0.76,,,0.97,17,Wunderground v.1.15,2013-02-01 06:44:00,
2013-02-01 17:49:00,63.8,62.3,29.65,WSW,237,6.0,6.0,95,0.13,,,0.80,14,Wunderground v.1.15,2013-02-01 06:49:00,
2013-02-01 17:54:00,63.8,62.6,29.65,WSW,248,5.0,5.0,96,0.06,,,0.80,21,Wunderground v.1.15,2013-02-01 06:54:00,
2013-02-01 17:59:00,63.6,62.1,29.65,SSW,193,5.0,5.0,95,0.06,,,0.80,19,Wunderground v.1.15,2013-02-01 06:59:00,
2013-02-01 18:04:00,63.6,62.4,29.65,SW,217,6.0,6.0,96,0.07,,,0.81,21,Wunderground v.1.15,2013-02-01 07:04:00,
2013-02-01 18:09:00,63.9,62.4,29.65,SW,225,5.0,-999.0,95,0.12,,,0.97,16,Wunderground v.1.15,2013-02-01 07:09:00,
2013-02-01 18:14:00,63.6,62.4,29.65,SW,224,5.0,5.0,96,0.05,,,0.81,16,Wunderground v.1.15,2013-02-01 07:14:00,
2013-02-01 18:19:00,63.7,62.5,29.65,SW,222,5.0,5.0,96,0.05,,,0.82,14,Wunderground v.1.15,2013-02-01 07:19:00,
2013-02-01 18:24:00,63.8,62.6,29.65,WSW,238,5.0,5.0,96,0.11,,,0.83,12,Wunderground v.1.15,2013-02-01 07:24:00,
2013-02-01 18:29:00,63.7,62.5,29.65,SW,225,5.0,-999.0,96,0.06,,,0.97,16,Wunderground v.1.15,2013-02-01 07:29:00,
2013-02-01 18:34:00,63.9,62.7,29.66,WSW,251,4.0,5.0,96,0.07,,,0.83,9,Wunderground v.1.15,2013-02-01 07:34:00,
2013-02-01 18:39:00,63.6,62.4,29.67,South,188,5.0,5.0,96,0.11,,,0.84,12,Wunderground v.1.15,2013-02-01 07:39:00,
2013-02-01 18:44:00,63.7,62.5,29.65,SW,225,5.0,-999.0,96,0.06,,,0.97,16,Wunderground v.1.15,2013-02-01 07:44:00,
2013-02-01 18:49:00,63.5,62.3,29.66,SW,221,4.0,5.0,96,0.05,,,0.85,5,Wunderground v.1.15,2013-02-01 07:49:00,
2013-02-01 18:54:00,63.6,62.4,29.66,South,171,4.0,4.0,96,0.12,,,0.86,7,Wunderground v.1.15,2013-02-01 07:54:00,
2013-02-01 18:59:00,63.6,62.4,29.66,West,281,3.0,4.0,96,0.09,,,0.86,5,Wunderground v.1.15,2013-02-01 07:59:00,
2013-02-01 19:04:00,63.6,62.4,29.66,WSW,248,4.0,-999.0,96,0.06,,,0.97,8,Wunderground v.1.15,2013-02-01 08:04:00,
2013-02-01 19:09:00,63.9,62.7,29.65,South,190,1.0,2.0,96,0.09,,,0.87,7,Wunderground v.1.15,2013-02-01 08:09:00,
2013-02-01 19:14:00,64.0,62.8,29.66,WSW,254,1.0,3.0,96,0.07,,,0.87,9,Wunderground v.1.15,2013-02-01 08:14:00,
2013-02-01 19:19:00,64.0,62.8,29.66,WSW,240,2.0,4.0,96,0.05,,,0.87,9,Wunderground v.1.15,2013-02-01 08:19:00,
2013-02-01 19:24:00,63.9,62.7,29.67,SW,225,2.0,-999.0,96,0.06,,,0.97,6,Wunderground v.1.15,2013-02-01 08:24:00,
2013-02-01 19:29:00,64.0,62.8,29.67,WSW,252,3.0,4.0,96,0.00,,,0.88,0,Wunderground v.1.15,2013-02-01 08:29:00,
2013-02-01 19:34:00,63.9,62.7,29.67,SW,225,2.0,-999.0,96,0.06,,,0.97,6,Wunderground v.1.15,2013-02-01 08:34:00,
2013-02-01 19:39:00,64.1,62.9,29.65,SSW,201,1.0,2.0,96,0.06,,,0.89,0,Wunderground v.1.15,2013-02-01 08:39:00,
2013-02-01 19:44:00,64.0,62.8,29.64,South,182,1.0,1.0,96,0.06,,,0.89,7,Wunderground v.1.15,2013-02-01 08:44:00,
2013-02-01 19:49:00,64.1,62.9,29.65,SSE,158,1.0,1.0,96,0.04,,,0.89,5,Wunderground v.1.15,2013-02-01 08:49:00,
2013-02-01 19:54:00,64.1,62.9,29.65,WSW,248,1.0,-999.0,96,0.03,,,0.97,2,Wunderground v.1.15,2013-02-01 08:54:00,
2013-02-01 19:59:00,64.3,63.1,29.65,WNW,288,1.0,1.0,96,0.00,,,0.89,0,Wunderground v.1.15,2013-02-01 08:59:00,
2013-02-01 20:04:00,64.3,63.1,29.63,NE,51,1.0,1.0,96,0.00,,,0.90,0,Wunderground v.1.15,2013-02-01 09:04:00,
2013-02-01 20:09:00,64.1,62.9,29.65,WSW,248,1.0,-999.0,96,0.03,,,0.97,2,Wunderground v.1.15,2013-02-01 09:09:00,
2013-02-01 20:14:00,64.3,63.1,29.58,North,355,3.0,3.0,96,0.00,,,0.90,0,Wunderground v.1.15,2013-02-01 09:14:00,
2013-02-01 20:19:00,64.2,63.0,29.59,WSW,254,2.0,3.0,96,0.00,,,0.90,0,Wunderground v.1.15,2013-02-01 09:19:00,
2013-02-01 20:24:00,64.2,63.0,29.64,NE,45,2.0,-999.0,96,0.02,,,0.97,0,Wunderground v.1.15,2013-02-01 09:24:00,
2013-02-01 20:29:00,64.1,62.9,29.64,WSW,251,3.0,4.0,96,0.00,,,0.90,0,Wunderground v.1.15,2013-02-01 09:29:00,
2013-02-01 20:34:00,64.2,63.0,29.64,NE,45,2.0,-999.0,96,0.02,,,0.97,0,Wunderground v.1.15,2013-02-01 09:34:00,
2013-02-01 20:39:00,64.3,63.1,29.65,WSW,252,3.0,3.0,96,0.00,,,0.90,0,Wunderground v.1.15,2013-02-01 09:39:00,
2013-02-01 20:44:00,64.3,63.1,29.64,West,268,3.0,4.0,96,0.00,,,0.90,0,Wunderground v.1.15,2013-02-01 09:44:00,
2013-02-01 20:49:00,64.4,63.5,29.63,SW,217,2.0,4.0,97,0.00,,,0.90,0,Wunderground v.1.15,2013-02-01 09:49:00,
2013-02-01 20:54:00,64.3,63.4,29.64,SW,225,3.0,-999.0,97,0.01,,,0.97,0,Wunderground v.1.15,2013-02-01 09:54:00,
2013-02-01 20:59:00,64.4,63.5,29.63,SSE,158,2.0,6.0,97,0.00,,,0.90,0,Wunderground v.1.15,2013-02-01 09:59:00,
2013-02-01 21:04:00,64.4,63.5,29.64,SSE,163,3.0,5.0,97,0.16,,,0.91,0,Wunderground v.1.15,2013-02-01 10:04:00,
2013-02-01 21:09:00,64.2,63.0,29.64,SSW,211,3.0,5.0,96,0.20,,,0.93,0,Wunderground v.1.15,2013-02-01 10:09:00,
2013-02-01 21:14:00,64.3,63.4,29.64,SW,225,3.0,-999.0,97,0.01,,,0.97,0,Wunderground v.1.15,2013-02-01 10:14:00,
2013-02-01 21:19:00,64.3,63.4,29.63,WSW,258,3.0,4.0,97,0.05,,,0.93,0,Wunderground v.1.15,2013-02-01 10:19:00,
2013-02-01 21:24:00,64.3,63.1,29.64,SSW,211,3.0,3.0,96,0.04,,,0.93,0,Wunderground v.1.15,2013-02-01 10:24:00,
2013-02-01 21:29:00,64.3,63.4,29.65,SW,228,3.0,3.0,97,0.00,,,0.93,0,Wunderground v.1.15,2013-02-01 10:29:00,
2013-02-01 21:34:00,64.3,63.4,29.65,SW,225,3.0,-999.0,97,0.03,,,0.97,0,Wunderground v.1.15,2013-02-01 10:34:00,
2013-02-01 21:39:00,64.0,62.8,29.63,West,273,3.0,4.0,96,0.00,,,0.93,0,Wunderground v.1.15,2013-02-01 10:39:00,
2013-02-01 21:44:00,63.9,62.7,29.63,West,259,3.0,3.0,96,0.00,,,0.93,0,Wunderground v.1.15,2013-02-01 10:44:00,
2013-02-01 21:49:00,64.0,63.1,29.64,SW,225,3.0,-999.0,97,0.03,,,0.97,0,Wunderground v.1.15,2013-02-01 10:49:00,
2013-02-01 21:54:00,63.9,63.0,29.64,South,188,3.0,7.0,97,0.00,,,0.93,0,Wunderground v.1.15,2013-02-01 10:54:00,
2013-02-01 21:59:00,64.0,63.1,29.64,SW,228,4.0,7.0,97,0.00,,,0.93,0,Wunderground v.1.15,2013-02-01 10:59:00,
2013-02-01 22:04:00,64.0,62.8,29.63,West,268,4.0,4.0,96,0.00,,,0.93,0,Wunderground v.1.15,2013-02-01 11:04:00,
2013-02-01 22:09:00,64.0,63.1,29.64,SW,225,3.0,-999.0,97,0.03,,,0.97,0,Wunderground v.1.15,2013-02-01 11:09:00,
2013-02-01 22:14:00,63.9,62.7,29.64,WSW,248,4.0,5.0,96,0.00,,,0.93,0,Wunderground v.1.15,2013-02-01 11:14:00,
2013-02-01 22:19:00,63.8,62.6,29.64,SSW,207,5.0,5.0,96,0.00,,,0.93,0,Wunderground v.1.15,2013-02-01 11:19:00,
2013-02-01 22:24:00,63.6,62.1,29.64,SW,235,5.0,6.0,95,0.00,,,0.93,0,Wunderground v.1.15,2013-02-01 11:24:00,
2013-02-01 22:29:00,63.8,62.3,29.64,SW,225,5.0,-999.0,95,0.00,,,0.97,0,Wunderground v.1.15,2013-02-01 11:29:00,
2013-02-01 22:34:00,63.4,61.9,29.64,West,263,4.0,4.0,95,0.00,,,0.93,0,Wunderground v.1.15,2013-02-01 11:34:00,
2013-02-01 22:39:00,63.8,62.3,29.64,SW,225,5.0,-999.0,95,0.00,,,0.97,0,Wunderground v.1.15,2013-02-01 11:39:00,
2013-02-01 22:44:00,63.5,62.0,29.64,SSW,203,3.0,3.0,95,0.00,,,0.93,0,Wunderground v.1.15,2013-02-01 11:44:00,
2013-02-01 22:49:00,63.4,61.9,29.63,WSW,240,3.0,5.0,95,0.00,,,0.93,0,Wunderground v.1.15,2013-02-01 11:49:00,
2013-02-01 22:54:00,63.5,61.7,29.63,South,180,4.0,4.0,94,0.00,,,0.93,0,Wunderground v.1.15,2013-02-01 11:54:00,
2013-02-01 22:59:00,63.5,61.7,29.63,SW,225,4.0,-999.0,94,0.00,,,0.97,0,Wunderground v.1.15,2013-02-01 11:59:00,
2013-02-01 23:04:00,63.7,61.9,29.63,SSW,209,4.0,5.0,94,0.00,,,0.93,0,Wunderground v.1.15,2013-02-01 12:04:00,
2013-02-01 23:09:00,63.8,62.0,29.64,South,189,4.0,5.0,94,0.00,,,0.93,0,Wunderground v.1.15,2013-02-01 12:09:00,
2013-02-01 23:14:00,64.0,62.2,29.63,WSW,251,4.0,4.0,94,0.00,,,0.93,0,Wunderground v.1.15,2013-02-01 12:14:00,
2013-02-01 23:19:00,64.1,62.3,29.64,SW,218,4.0,6.0,94,0.00,,,0.93,0,Wunderground v.1.15,2013-02-01 12:19:00,
2013-02-01 23:24:00,63.9,62.1,29.64,SW,225,4.0,-999.0,94,0.00,,,0.97,0,Wunderground v.1.15,2013-02-01 12:24:00,
2013-02-01 23:29:00,64.3,62.5,29.64,SW,219,3.0,4.0,94,0.00,,,0.93,0,Wunderground v.1.15,2013-02-01 12:29:00,
2013-02-01 23:34:00,63.9,62.1,29.64,SW,225,4.0,-999.0,94,0.00,,,0.97,0,Wunderground v.1.15,2013-02-01 12:34:00,
2013-02-01 23:39:00,64.4,62.6,29.65,SSW,207,3.0,4.0,94,0.00,,,0.93,0,Wunderground v.1.15,2013-02-01 12:39:00,
2013-02-01 23:44:00,64.5,62.7,29.65,West,261,2.0,2.0,94,0.00,,,0.93,0,Wunderground v.1.15,2013-02-01 12:44:00,
2013-02-01 23:49:00,64.6,62.8,29.64,West,265,2.0,4.0,94,0.00,,,0.94,0,Wunderground v.1.15,2013-02-01 12:49:00,
2013-02-01 23:54:00,64.5,63.0,29.65,SW,225,2.0,-999.0,95,0.04,,,0.97,0,Wunderground v.1.15,2013-02-01 12:54:00,
2013-02-01 23:59:00,64.7,63.2,29.65,SSW,204,3.0,3.0,95,1.70,,,0.00,0,Wunderground v.1.15,2013-02-01 12:59:00,